{"data":{"norad_id":64875,"epoch":"2026-05-25T02:31:07.876992Z","epoch_age_seconds":56040,"freshness":"FRESH","line1":"1 64875U 25154G   26145.10495228  .00020207  00000+0  66367-3 0  9997","line2":"2 64875  97.4046 213.4395 0001916 125.4782 234.6639 15.31602702 46511","mean_motion":15.31602702,"eccentricity":0.0001916,"inclination_deg":97.4046,"raan_deg":213.4395,"arg_perigee_deg":125.4782,"mean_anomaly_deg":234.6639,"bstar":0.00066367,"rev_number":4651,"period_min":94.019160329217,"perigee_km":469.71775044809,"apogee_km":472.34235126198,"semimajor_km":6849.167050855,"source":"CELESTRAK","updated_at":"2026-05-25T13:38:04.869075Z"}}